Погода в Борисове

Погода в Борисове : погода сейчас, прогноз погоды и архив. Всё, что Вы хотите узнать о погоде в Борисове!

Хотите узнать прогноз погоды в Борисове? Тогда Вам сюда: Погода в Борисове

Поиск расширенной информации на нашем сайте:

Другие новости

Новости СМИ2

Главная страница сайта

Новости сайта

02.10.2013

Напоминаем, что на нашем новом сайте вы можете получить высокодетализированные прогнозы погоды по пунктам России, СНГ и мира (включающие важные для авиации метеовеличины, такие как направление и скорость ветра, видимость, явления погоды, количество и форма облачности, нижняя и верхняя граница облачности), а также ознакомиться с разнообразными материалами по авиационной метеорологии и подборкой полезных ссылок на эту тему.

Сайт Метеоцентр.Азия посвящён разработке технологий оптимизации авиаметеорологического обслуживания, включая проектирование и перспективное создание нескольких автоматизированных авиаметеорологических систем:
- система выпуска высокодетальных прогностических карт явлений погоды для нижнего воздушного пространства по России и ближнему зарубежью;
- система верификации прогнозов TAF (выпускаемых синоптиками официальных АМСГ РФ и ближнего зарубежья) и AUTOTAF (выпускаемых сайтом Метеоцентр.Азия) - выявление ошибок, онлайн-сопоставление с фактической погодой METAR, автоматическое внесение коррективов в прогнозы при резком отклонении фактической погоды от прогноза, подсчёт оправдываемости прогнозов по элементам и в целом;
- система обработки, анализа и отображения авиаметеорологической информации для применения провайдерами метеорологической информации.


Погода в Борисове - сегодня

Время (UTC), дата Ветер
(°,м/с) 
Видим.   Явления Облачность Т
(°С)
Тd
(°С)
f(%) Тe
(°С)
Pmin
(гПа)
dP
(гПа)
Po
(мм)
O2
(г/м3)
Тmin Tmax R s Состояние
почвы
18 20.04.17 350 (С) 35000 м    ясно 
+2.5 -9.4 41 +3  1025.8  -0.7  752  301    +7.2       
21 20.04.17 тихо ()   30000 м    ясно 
-2.1 -6.9 70 -2  1025.4  -0.8  751  306           
00 21.04.17 тихо ()   35000 м    ясно 
-3.9 -6.3 83 -4  1024.2  -1.3  750  307           
03 21.04.17 220 (ЮЗ) 35000 м    ясно 
-3.7 -7.8 73 -3  1022.1  -2.1  749  307           
06 21.04.17 240 (ЮЗ) 35000 м    ясно 
+3.4 -5.6 52 +1  1018.8  -2.6  747  298  -4.5         
18 21.04.17 240 (ЮЗ) 18000 м  слаб. ливневой дождь  9/9 480 м кучево-дожд. 
[Cb calv]
+5.5 +2.2 79 +4  1007  -2  738  291    +7.6  0.0     
03 22.04.17 200 (Ю) 7000 м  слаб. ливневой дождь  10/10 180 м кучево-дожд. 
[Cb calv]
+5.9 +5.2 95 +5  996.8  -3.9  731  287      0.6     
06 22.04.17 270 (З) 4-10{11}  30000 м  слаб. ливневой дождь  10/10 240 м кучево-дожд. 
[Cb calv]
+4.2 +2.9 91 +2  995.6  -1.4  730  289  +4.2       
18 22.04.17 240 (ЮЗ) 2{13}  35000 м  в посл. час ливневой дождь  4/4 600 м кучево-дожд. 
[Cb calv]
+4.2 -0.3 72 +4  1002.1  1.6  734  291    +8.8     
21 22.04.17 320 (СЗ) 35000 м    9/9 1000 м 
[Sc]
+3.6 -2.2 66 +3  1003.4  1.2  735  293           
03 23.04.17 240 (ЮЗ) 35000 м    10/10 500 м 
[Sc]
+1.2 -1.3 83 +1  1003.7  0.3  735  295      0.0     
06 23.04.17 270 (З) 35000 м    4/4 600 м 
[Sc]
+2.9 -2.2 69 +2  1004.9  1.3  736  294  +0.7    0.0     
09 23.04.17 310 (СЗ) 35000 м    9/9 960 м 
[Sc]
+5.1 -2.1 60 +5  1006.2  1.5  737  292           
18 23.04.17 тихо ()   35000 м    3/3 600 м 
[Sc diur, vesp]
+4.5 -6.4 45 +5  1009.2  1.6  740  294    +8.7  0.2     
21 23.04.17 290 (З) 35000 м    ясно 
+1.4 -3.3 71 +2  1010.9  1.3  741  297           
00 24.04.17 270 (З) 35000 м    ясно 
-0.8 -2.8 86 1011.7  0.6  741  300           
03 24.04.17 тихо ()   35000 м    ясно 
-2.4 -3.1 95 -2  1011.8  741  302           
06 24.04.17 300 (СЗ) 35000 м    ясно 
+3.2 -2.2 68 +4  1012.1  0.8  742  296  -2.6         
09 24.04.17 240 (ЮЗ) 35000 м    9/9 600 м 
[Sc]
+7.1 -6.5 37 +7  1011.8  742  292           
15 24.04.17 250 (З) 35000 м    9/9 600 м 
[Sc]
+7.7 -3.9 44 +7  1011  0.1  741  291      0.0     
18 24.04.17 230 (ЮЗ) 35000 м    3/3 600 м 
[Sc]
+4.2 -0.4 72 +4  1012.8  1.4  742  295    +9.8  0.0     
21 24.04.17 200 (Ю) 35000 м    ясно 
+0.5 -0.6 92 +1  1013.5  0.4  743  299           
00 25.04.17 тихо ()   23000 м    9/9 1000 м 
[Sc]
+0.9 -0.3 92 +1  1013.3  -0.2  742  298           
03 25.04.17 тихо ()   20000 м    3/3 600 м 
[Sc]
-0.1 -1.1 93 -0  1012.8  -0.5  742  299           
06 25.04.17 190 (Ю) 35000 м    9/9 1200 м 
[Sc]
+5.1 -0.6 67 +3  1012.6  0.2  742  294  -0.1         
Время (UTC), дата Ветер
(°,м/с) 
Видим.   Явления Облачность Т
(°С)
Тd
(°С)
f(%) Тe
(°С)
Pmin
(гПа)
dP
(гПа)
Po
(мм)
O2
(г/м3)
Тmin Tmax R s Состояние
почвы

Для получения пояснительной информации подведите курсор к названию столбца.

ПОГОДА в Борисове - архив

Всё, что Вы хотите узнать о погоде в Борисове - удобно и подробно!

Выберите нужную дату (начиная с 1 января 2015* года) и нажмите кнопку "Найти".
Будут отображены архивные сводки погоды по пункту Борисов, начиная с указанной даты.


Отображать данные в формате CSV (для использования в таблицах Excel)


Внимание! Наш архив погоды предназначен исключительно для личного некоммерческого использования в познавательных целях. Если Вам необходимы официальные справки о состоянии погоды (для производственных, юридических, коммерческих и т.п. целей), обращайтесь в органы Росгидромета.

*Примечание: данная дата относится к архиву по метеостанциям СССР (Россия, СНГ, Балтия).
Архив по метеостанциям Зарубежной Европы и Азии (кроме Китая) хранится 10 дней, по другим регионам земного шара (Китай, Африка, Америка, Австралия, Океания) - 1 день.

Борисов - район местоположения метеостанции


Название, широта, долгота, высота метеостанции:
Борисов 54.3°ш. 28.5°д. 189 м над ур. моря [Беларусь]

Дополнительная информация

В oтличие oт бoльшинства пoгoдных сайтoв мы публикуем пoдрoбную метеoинфoрмацию в детальнoм прoфессиoнальнoм фoрмате.

Характеристики температуры и влажнoсти вoздуха измеряются на высoте 2 м в тени вдали oт зданий и деревьев.
Скoрoсть ветра измеряется на высoте 10 м (на урoвне рoста челoвека скoрoсть ветра ниже в 1.5-2 раза). Если метеoстанция нахoдится в гoрoде или в лесу, тo скoрoсть ветра занижена на 2-4 м/с пo сравнению с oткрытым местoм. Скoрoсть ветра над акватoриями крупных рек и oзёр, а также на вершинах хoлмoв на 2-5 м/с выше, чем в oбычных услoвиях.
Атмoсфернoе давление в разных тoчках местнoсти мoжет значительнo oтличаться oт давления на метеoстанции, в зависимoсти oт услoвий рельефа (при пoдъёме на 10 м давление пoнижается примернo на 1 мм рт.ст.).